Home   Weather   Regensburg   Past weeks

Flag for Germany Past Weather in Regensburg, Bavaria, Germany — Yesterday and Last 2 Weeks

Now
21 °F

Clear.


Feels Like: 21 °F
Forecast: 26 / 42 °F
Wind: No wind

Location: Hohenfels

Current Time: Dec 9, 2016 at 7:13:51 am

Latest Report: Dec 9, 2016 at 5:58 am


Visibility: N/A

Pressure: 30.53 "Hg

Humidity: 100%

Dew Point: 21 °F

Location of RegensburgLocation

Past Weather in Regensburg — Graph

°F

Regensburg Temperature Yesterday

Maximum temperature yesterday: 32 °F (at 2:59 pm)
Minimum temperature yesterday: 25 °F (at 8:58 am)
Average temperature yesterday: 28 °F

High & Low Weather Summary for the Past Weeks

 TemperatureHumidityPressure
High47 °F (Nov 25, 1:58 pm)100% (Nov 24, 4:58 am)30.69 "Hg (Nov 24, 4:58 am)
Low12 °F (Dec 5, 3:58 am)56% (Nov 30, 9:58 pm)30.01 "Hg (Nov 26, 2:03 pm)
Average31 °F92%30.36 "Hg
* Reported Nov 24 4:58 am — Dec 9 4:58 am, Regensburg, Weather by CustomWeather, © 2016

Note: Actual official high and low records may vary slightly from our data, if they occured in-between our weather recording intervals... More about our weather records

Advertising

Regensburg Weather History for the Previous 24 Hours

Scroll right to see more
 ConditionsComfort  
Time TempWeatherWind HumidityBarometerVisibility
4:58 am
Fri, Dec 9
21 °FClear.No wind98%30.53 "HgN/A
3:58 am22 °FClear.No wind98%30.53 "HgN/A
2:58 am24 °FIce fog.No wind98%30.55 "Hg6 mi
1:58 am25 °FIce fog.No wind100%30.53 "Hg5 mi
12:58 am26 °FIce fog.No wind98%30.53 "Hg5 mi
11:58 pm
Thu, Dec 8
27 °FIce fog.No wind100%30.55 "Hg6 mi
10:58 pm28 °FIce fog.No wind93%30.55 "Hg5 mi
9:58 pm27 °FIce fog.No wind99%30.56 "Hg5 mi
8:58 pm26 °FIce fog.5 mph99%30.57 "Hg4 mi
7:58 pm26 °FIce fog.No wind99%30.58 "Hg4 mi
6:58 pm27 °FIce fog.No wind99%30.58 "Hg3 mi
5:58 pm28 °FIce fog.No wind100%30.58 "Hg4 mi
4:58 pm30 °FIce fog.No wind99%30.58 "Hg4 mi
4:04 pm30 °FIce fog.3 mph100%30.48 "Hg4 mi
3:58 pm30 °FIce fog.3 mph100%30.58 "Hg4 mi
2:59 pm32 °FIce fog.3 mph93%30.48 "Hg5 mi
1:58 pm31 °FIce fog.5 mph94%30.57 "Hg5 mi
12:58 pm30 °FIce fog.5 mph95%30.60 "Hg5 mi
11:58 am28 °FIce fog.3 mph100%30.63 "Hg4 mi
10:58 am28 °FIce fog.3 mph95%30.64 "Hg5 mi
9:58 am27 °FIce fog.No wind100%30.65 "Hg5 mi
8:58 am25 °FIce fog.No wind100%30.65 "Hg4 mi
7:58 am26 °FIce fog.No wind99%30.65 "Hg4 mi
Weather by CustomWeather, © 2016

See weather overviewHow to use our weather pages